Home   Weather   Barnaul   Past weeks

Flag for Russia Past Weather in Barnaul, Russia — Yesterday and Last 2 Weeks

Now
61 °F

Passing clouds.


Feels Like: 61 °F
Forecast: 51 / 84 °F
Wind: 6 mph from Southeast

Location: Barnaul Airport

Current Time: May 27, 2017 at 1:29:32 pm

Latest Report: May 27, 2017 at 1:00 pm


Visibility: N/A

Pressure: 30.24 "Hg

Humidity: 29%

Dew Point: 28 °F

Location of BarnaulLocation

Past Weather in Barnaul — Graph

°F

Barnaul Temperature Yesterday

Maximum temperature yesterday: 59 °F (at 3:00 pm)
Minimum temperature yesterday: 48 °F (at 3:30 am)
Average temperature yesterday: 54 °F

High & Low Weather Summary for the Past Weeks

 TemperatureHumidityPressure
High90 °F (May 23, 4:00 pm)94% (May 13, 9:00 pm)30.33 "Hg (May 13, 9:00 pm)
Low34 °F (May 18, 3:30 am)9% (May 23, 4:00 pm)29.59 "Hg (May 23, 10:30 pm)
Average59 °F48%30.01 "Hg
* Reported May 12 12:00 pm — May 27 12:30 pm, Barnaul. Weather by CustomWeather, © 2017

Note: Actual official high and low records may vary slightly from our data, if they occured in-between our weather recording intervals... More about our weather records

Advertising

Barnaul Weather History for the Previous 24 Hours

Scroll right to see more
 ConditionsComfort  
Time TempWeatherWind HumidityBarometerVisibility
12:30 pm
Sat, May 27
59 °FPassing clouds.6 mph31%30.24 "HgN/A
12:00 pm59 °FPassing clouds.6 mph34%30.27 "HgN/A
11:30 am57 °FPassing clouds.6 mph31%30.27 "HgN/A
11:00 am55 °FPassing clouds.8 mph36%30.27 "HgN/A
10:30 am55 °FSunny.8 mph36%30.30 "Hg10 mi
10:00 am54 °FSunny.8 mph41%30.30 "Hg10 mi
9:30 am52 °FSunny.8 mph44%30.30 "Hg10 mi
9:00 am52 °FSunny.8 mph44%30.30 "Hg10 mi
8:30 am50 °FSunny.8 mph47%30.33 "Hg10 mi
8:00 am48 °FSunny.10 mph50%30.33 "Hg10 mi
7:30 am48 °FSunny.10 mph50%30.33 "Hg10 mi
7:00 am46 °FSunny.6 mph62%30.33 "Hg10 mi
6:30 am43 °FSunny.6 mph66%30.30 "Hg10 mi
6:00 am43 °FSunny.6 mph61%30.30 "Hg10 mi
5:30 am43 °FSunny.6 mph57%30.30 "Hg10 mi
5:00 am43 °FClear.6 mph57%30.30 "Hg10 mi
4:30 am43 °FClear.6 mph61%30.30 "Hg10 mi
4:00 am43 °FClear.6 mph61%30.30 "Hg10 mi
3:30 am45 °FClear.6 mph53%30.30 "Hg10 mi
3:00 am45 °FClear.6 mph53%30.30 "Hg10 mi
2:30 am45 °FClear.6 mph57%30.30 "Hg10 mi
1:30 am45 °FClear.8 mph57%30.30 "Hg10 mi
1:00 am46 °FClear.8 mph53%30.30 "Hg10 mi
12:30 am46 °FClear.8 mph57%30.30 "Hg10 mi
12:00 am46 °FClear.10 mph57%30.27 "Hg10 mi
11:00 pm
Fri, May 26
48 °FClear.6 mph54%30.27 "Hg10 mi
10:00 pm52 °FClear.6 mph41%30.24 "Hg10 mi
9:30 pm54 °FSunny.3 mph35%30.21 "Hg10 mi
9:00 pm55 °FSunny.8 mph36%30.21 "Hg10 mi
8:30 pm57 °FSunny.8 mph31%30.18 "Hg10 mi
8:00 pm57 °FSunny.13 mph31%30.18 "Hg10 mi
7:30 pm57 °FSunny.13 mph31%30.18 "Hg10 mi
7:00 pm59 °FSunny.13 mph29%30.18 "Hg10 mi
6:30 pm59 °FSunny.13 mph29%30.18 "Hg10 mi
6:00 pm59 °FSunny.13 mph29%30.18 "Hg10 mi
5:30 pm59 °FPassing clouds.13 mph31%30.15 "HgN/A
5:00 pm59 °FPassing clouds.13 mph31%30.15 "HgN/A
4:30 pm59 °FPassing clouds.13 mph31%30.15 "HgN/A
4:00 pm59 °FPassing clouds.10 mph31%30.15 "HgN/A
3:30 pm59 °FPassing clouds.10 mph31%30.15 "HgN/A
3:00 pm59 °FPassing clouds.10 mph29%30.15 "HgN/A
2:00 pm57 °FPassing clouds.15 mph33%30.12 "HgN/A
1:30 pm57 °FPassing clouds.15 mph33%30.12 "HgN/A
1:00 pm57 °FPassing clouds.15 mph33%30.12 "HgN/A
Weather by CustomWeather, © 2017

See weather overviewHow to use our weather pages